Location: Champaign/Urbana Astronomical Society Observatory
(40.0333°N, 88.2833°W)
Time: 12:40:08
(UTC-06:00)

N. Korean satellite - Visible Passes

Search period start: 16 November 2018 00:00
Search period end: 26 November 2018 00:00
Orbit: 457 x 511 km, 97.2° (Epoch: 15 November)

Date Brightness Start Highest point End Pass type
(mag) Time Alt. Az. Time Alt. Az. Time Alt. Az.
16 Nov 9.7 05:24:04 10° NE 05:26:24 17° E 05:28:43 10° SE visible
16 Nov 6.7 17:31:15 10° S 17:34:52 76° W 17:38:28 10° NNW visible
17 Nov 6.8 17:06:56 10° SSE 17:10:25 48° ENE 17:13:53 10° N visible
18 Nov 6.8 06:07:32 10° NNE 06:10:58 71° E 06:14:23 10° S visible
18 Nov 9.5 18:16:46 10° SW 18:19:26 19° W 18:22:04 10° NW visible
19 Nov 8.6 05:43:19 10° NNE 05:46:25 31° E 05:49:30 10° SSE visible
19 Nov 8.1 17:51:26 10° SSW 17:54:50 39° W 17:58:12 10° NNW visible
20 Nov 9.8 05:19:42 10° NE 05:21:47 15° E 05:23:51 10° SE visible
20 Nov 6.5 17:26:43 10° SSE 17:30:18 87° WSW 17:33:52 10° NNW visible
21 Nov 6.9 17:02:27 10° SE 17:05:51 41° ENE 17:09:12 10° N visible
21 Nov 10.2 18:38:40 10° WSW 18:39:29 11° W 18:40:19 10° WNW visible
22 Nov 7.1 06:02:56 10° NNE 06:06:21 61° E 06:09:46 10° S visible
22 Nov 9.3 18:12:01 10° SSW 18:14:49 21° W 18:17:36 10° NW visible
23 Nov 8.9 05:38:47 10° NE 05:41:46 27° E 05:44:46 10° SSE visible
23 Nov 7.8 17:46:47 10° S 17:50:13 44° W 17:53:37 10° NNW visible
24 Nov 9.9 05:15:21 10° ENE 05:17:07 13° E 05:18:54 10° SE visible
24 Nov 6.4 17:22:08 10° SSE 17:25:41 81° ENE 17:29:12 10° N visible
25 Nov 7.1 16:57:58 10° SE 17:01:14 36° ENE 17:04:28 10° N visible
25 Nov 10.0 18:33:25 10° WSW 18:34:49 12° W 18:36:13 10° WNW visible
